This is the latest recevied weather packets stored in our database for station/object WW5JC. If no packets are shown the sender has not sent any weather packets the latest 10 day(s).
| Time | Temp. | Humidity | Pressure | Rain* | Wind** | Luminosity | Snow |
|---|---|---|---|---|---|---|---|
| 1788544550 | 34.44° C | 52% | 1016.8 hPa | 0 mm | - | 705 W/m² | - |
| 1788544248 | 33.89° C | 55% | 1016.8 hPa | 0 mm | - | 695 W/m² | - |
| 1788543943 | 33.89° C | 55% | 1016.9 hPa | 0 mm | - | 190 W/m² | - |
| 1788543640 | 33.89° C | 55% | 1016.8 hPa | 0 mm | - | 706 W/m² | - |
| 1788543340 | 33.33° C | 57% | 1017 hPa | 0 mm | - | 665 W/m² | - |
| 1788543035 | 33.89° C | 56% | 1016.9 hPa | 0 mm | - | 669 W/m² | - |
| 1788542731 | 33.89° C | 57% | 1017 hPa | 0 mm | - | 660 W/m² | - |
| 1788542430 | 33.89° C | 56% | 1017 hPa | 0 mm | - | 651 W/m² | - |
| 1788542126 | 32.78° C | 59% | 1017.3 hPa | 0 mm | - | 643 W/m² | - |
| 1788541821 | 33.89° C | 57% | 1017.5 hPa | 0 mm | - | 645 W/m² | - |
| 1788541517 | 33.33° C | 58% | 1017.5 hPa | 0 mm | - | 645 W/m² | - |
| 1788541213 | 33.33° C | 56% | 1017.4 hPa | 0 mm | - | 627 W/m² | - |
| 1788540912 | 33.33° C | 58% | 1017.4 hPa | 0 mm | - | 609 W/m² | - |
| 1788540611 | 32.78° C | 58% | 1017.4 hPa | 0 mm | - | 613 W/m² | - |
| 1788540306 | 33.33° C | 58% | 1017.5 hPa | 0 mm | - | 599 W/m² | - |
| 1788540002 | 32.78° C | 58% | 1017.5 hPa | 0 mm | - | 592 W/m² | - |
| 1788539695 | 32.22° C | 61% | 1017.5 hPa | 0 mm | - | 576 W/m² | - |
| 1788539395 | 32.22° C | 62% | 1017.3 hPa | 0 mm | - | 588 W/m² | - |
| 1788539091 | 32.78° C | 60% | 1017.7 hPa | 0 mm | - | 565 W/m² | - |
| 1788538786 | 32.22° C | 62% | 1017.5 hPa | 0 mm | - | 541 W/m² | - |
| 1788538482 | 31.67° C | 61% | 1017.6 hPa | 0 mm | - | 536 W/m² | - |
| 1788538177 | 32.22° C | 63% | 1017.6 hPa | 0 mm | - | 391 W/m² | - |
| 1788537872 | 32.22° C | 61% | 1017.6 hPa | 0 mm | - | 523 W/m² | - |
| 1788537567 | 32.22° C | 62% | 1017.6 hPa | 0 mm | - | 502 W/m² | - |
| 1788537261 | 32.22° C | 64% | 1017.7 hPa | 0 mm | - | 374 W/m² | - |
* Rain latest hour (hover to see other rain measurements)
** Current wind speed in m/s (hover to see current wind gust speed)